Riverside, CA

10:31 PM PDT on August 18, 2017 (GMT -0700)
Riverside Municipal

Weather History for KRAL - September, 2011

Change the Weather History Date:

Tuesday, September 13, 2011

  Actual Average Record
Temperature  
Mean Temperature 77 °F 77 °F  
Max Temperature 90 °F 91 °F 113 °F (1971)
Min Temperature 64 °F 63 °F 42 °F (1916)
Degree Days  
Heating Degree Days 0 0  
Month to date heating degree days 0 0  
Since 1 July heating degree days 0 0  
Cooling Degree Days 12 12  
Month to date cooling degree days 182 167  
Year to date cooling degree days 1374 1425  
Growing Degree Days 27 (Base 50)    
Moisture  
Dew Point 56 °F    
Average Humidity 51    
Maximum Humidity 73    
Minimum Humidity 29    
Precipitation  
Precipitation 0.00 in 0.01 in 0.02 in (1959)
Month to date precipitation 0.04 0.07  
Year to date precipitation 4.58 9.41  
Since 1 July precipitation 0.38  
Snow  
Snow 0.00 in - - ()
Month to date snowfall 0.0  
Year to date snowfall 0.0  
Snow Depth 0.00 in    
Sea Level Pressure  
Sea Level Pressure 29.94 in    
Wind  
Wind Speed 4 mph (West)    
Max Wind Speed 17 mph    
Max Gust Speed 25 mph    
Visibility 10 miles    
Events      
T = Trace of Precipitation, MM = Missing Value Source: NWS Daily Summary

Daily Weather History Graph

Daily Weather History Graph

Search for Another Location

Airport or City:

Trip Planner

Search our weather history database for the weather conditions in past years. The results will help you decide how hot, cold, wet, or windy it might be!

Date:

Astronomy

Sep. 13, 2011 Rise Set
Actual Time 6:31 AM PDT 6:59 PM PDT
Civil Twilight 6:06 AM PDT 7:24 PM PDT
Nautical Twilight 5:36 AM PDT 7:53 PM PDT
Astronomical Twilight 5:06 AM PDT 8:23 PM PDT
Moon 7:25 PM PDT (9/13) 7:42 AM PDT (9/13)
Length of Visible Light 13h 17m
Length of Day
12h 27m
Full, 98% of the Moon is Illuminated
Sep 13
Full
Sep 20
Last Quarter
Sep 27
New
Oct 3
First Quarter
Oct 11
Full

Hourly Weather History & Observations

Time (PDT) Temp. Heat Index Dew Point Humidity Pressure Visibility Wind Dir Wind Speed Gust Speed Precip Events Conditions
12:53 AM 69.1 °F - 57.0 °F 65% 29.98 in 10.0 mi Calm Calm - N/A   Clear
1:53 AM 66.9 °F - 55.9 °F 68% 29.97 in 10.0 mi Calm Calm - N/A   Clear
2:53 AM 66.9 °F - 57.0 °F 70% 29.97 in 10.0 mi Calm Calm - N/A   Clear
3:53 AM 66.0 °F - 55.9 °F 70% 29.96 in 10.0 mi Calm Calm - N/A   Clear
4:53 AM 64.9 °F - 55.9 °F 73% 29.95 in 10.0 mi Calm Calm - N/A   Scattered Clouds
5:53 AM 66.9 °F - 55.9 °F 68% 29.95 in 10.0 mi Calm Calm - N/A   Mostly Cloudy
6:53 AM 66.0 °F - 57.0 °F 73% 29.96 in 10.0 mi Calm Calm - N/A   Scattered Clouds
7:53 AM 68.0 °F - 57.0 °F 68% 29.98 in 10.0 mi South 4.6 mph - N/A   Clear
9:53 AM 77.0 °F - 54.0 °F 45% 29.97 in 10.0 mi Calm Calm - N/A   Clear
11:53 AM 87.1 °F 85.1 °F 54.0 °F 32% 29.94 in 8.0 mi West 6.9 mph - N/A   Clear
12:53 PM 90.0 °F 87.5 °F 53.1 °F 28% 29.92 in 10.0 mi NW 5.8 mph - N/A   Clear
1:53 PM 90.0 °F 88.6 °F 57.0 °F 33% 29.91 in 10.0 mi WNW 10.4 mph 21.9 mph N/A   Scattered Clouds
2:53 PM 88.0 °F 86.5 °F 55.9 °F 34% 29.90 in 10.0 mi West 12.7 mph 25.3 mph N/A   Clear
3:53 PM 88.0 °F 86.7 °F 57.0 °F 35% 29.89 in 10.0 mi WNW 10.4 mph - N/A   Scattered Clouds
5:53 PM 81.0 °F 81.1 °F 57.9 °F 45% 29.89 in 10.0 mi West 12.7 mph - N/A   Clear
6:53 PM 78.1 °F - 57.0 °F 48% 29.92 in 10.0 mi SSW 6.9 mph - N/A   Mostly Cloudy
7:53 PM 73.9 °F - 57.0 °F 55% 29.93 in 10.0 mi West 9.2 mph - N/A   Clear
8:53 PM 71.1 °F - 57.0 °F 61% 29.95 in 10.0 mi West 5.8 mph - N/A   Clear
9:53 PM 71.1 °F - 57.0 °F 61% 29.95 in 10.0 mi Calm Calm - N/A   Clear
10:53 PM 70.0 °F - 55.9 °F 61% 29.94 in 10.0 mi West 3.5 mph - N/A   Clear
11:53 PM 69.1 °F - 57.0 °F 65% 29.94 in 10.0 mi Calm Calm - N/A   Clear